Weather in Shakhovskoe

Russia / Tula Oblast     54°02′04″N   38°05′09″E
temp.,
°C
wind,
m/s
gust,
m/s
humid.,
%
clouds,
%
prec.,
mm/h
press.,
hPa
HPBL,
m
5 march, fri
fri500:00−3nw3797100 0.6 1002297
03:00−5nw3796100 0.8 1004181
06:00−6nw369795 0.1 1006136
09:00−8nw349788 0.1 1008121
12:00−4wnw359120 0.0 1010410
15:00−3wnw358650 0.0 1011712
18:00−6w238925 0.0 101322
21:00−9wnw239013 0.0 101521
6 march, sat
sat600:00−10wnw22890 0.0 101621
03:00−11wsw11890 0.0 101721
06:00−11sw129228 0.0 101621
09:00−9ne119564 0.1 101742
12:00−6ne1292100 0.9 1017263
15:00−5nnw4588100 1.4 1016615
18:00−8wnw348836 0.1 101628
21:00−11w349017 0.1 101755
7 march, sun
sun700:00−12wsw44920 0.0 101667
03:00−12sw510920 0.0 1014171
06:00−10sw7138832 0.0 1011327
09:00−7sw9188467 0.0 1007661
12:00−5sw121993100 0.3 10011088
15:00−2wsw121991100 1.4 9981444
18:00−7wnw6157372 1.3 1001495
21:00−8wsw7157735 1.3 1003420
8 march, mon
mon800:00−9wsw715810 0.0 1002374
03:00−9sw8178117 0.0 1000469
06:00−8wsw8169199 0.0 997630
09:00−9wnw7138698 0.3 999662
12:00−8wnw91384100 0.0 10021282
15:00−7wnw81378100 0.3 10041263
18:00−8wnw61386100 0.1 1006647
21:00−10w5119482 0.1 1009278
9 march, tue
tue900:00−12wnw359677 0.0 1011103
03:00−14wnw349660 0.1 101263
06:00−14nw359793 0.1 1013107
09:00−13nnw469497 0.1 1015375
12:00−12nw4690100 0.1 1016536
15:00−11nw4788100 0.1 1017635
18:00−13wnw3593100 0.1 101793
21:00−16wnw349364 0.1 101931